[[{"header":{"parameterUnit":"m.s-1","parameterCategory":1,"la1":30.2991,"la2":30.254,"lo1":-89.0895,"lo2":-89.0444,"dy":0.0017,"dx":0.0017,"nx":28,"ny":28,"refTime":"2024-08-25T03:00:00:Z","depth":0,"parameterNumber":2,"parameterNumberName":"U-component_of_WINDS"},"data":[0,0,0,0,0,0,0,0,0,0,0,0,0,0,0,0,0,0,0,0,0,0,0,0,0,0,0,0,0,0,0,0,0,0,0,0,0,0,0,0,0,0,0,0,0,0,0,0,0,0,0,0,0,0,0,0,0,0,-2.7314,-2.7314,0,-2.728,-2.7279,-2.7279,-2.7205,-2.7204,-2.7202,-2.7201,-2.7168,-2.7169,-2.717,0,0,0,0,0,0,0,0,0,0,0,0,0,-2.732,-2.7321,-2.7314,-2.7314,-2.7313,-2.728,-2.7279,-2.7279,-2.7205,-2.7204,-2.7202,-2.72,-2.7168,-2.7169,-2.717,0,0,0,0,0,0,0,0,0,0,0,0,0,-2.7305,-2.7321,-2.7314,-2.7273,-2.7269,-2.728,-2.7279,-2.7279,-2.7206,-2.7204,-2.7201,-2.7199,-2.7168,-2.7169,-2.717,-2.722,0,0,-2.7172,-2.7172,0,0,0,0,0,0,0,0,-2.7306,-2.7305,-2.7279,-2.7276,-2.7271,-2.7244,-2.727,-2.7259,-2.7206,-2.723,-2.7201,-2.7198,-2.7196,-2.7194,-2.7193,-2.7218,-2.7217,-2.7172,-2.7173,-2.7173,-2.7173,0,0,0,0,0,0,0,-2.7307,-2.7306,-2.7301,-2.7279,-2.7274,-2.7257,-2.7252,-2.7267,-2.7226,-2.7228,-2.7222,-2.7219,-2.7193,-2.7192,-2.7191,-2.7216,-2.7172,-2.7173,-2.7173,-2.7174,-2.7285,-2.7287,0,0,0,0,0,0,-2.7314,-2.7308,-2.7302,-2.73,-2.7283,-2.7259,-2.7253,-2.7255,-2.7226,-2.7219,-2.7221,-2.7216,-2.7192,-2.7191,-2.719,-2.7249,-2.7173,-2.7174,-2.7174,-2.7282,-2.7285,-2.7288,0,0,0,0,0,0,-2.7314,-2.7314,-2.7303,-2.7302,-2.7299,-2.7261,-2.7264,-2.7256,-2.7255,-2.722,-2.7213,-2.7227,-2.719,-2.7189,-2.7213,-2.7246,-2.7174,-2.7175,-2.7279,-2.7283,-2.7286,-2.7365,0,0,0,0,0,0,-2.7315,-2.7315,-2.7332,-2.7303,-2.73,-2.7326,-2.7266,-2.7257,-2.7256,-2.7249,-2.7224,-2.7218,-2.7188,-2.7213,-2.7214,-2.7246,-2.7176,-2.7276,-2.7281,-2.7285,-2.736,-2.7371,-2.7381,0,0,0,0,0,-2.7315,-2.7356,-2.7333,-2.7333,-2.7321,-2.7328,-2.7326,-2.729,-2.7259,-2.7277,-2.7256,-2.7219,-2.7242,-2.7216,-2.7217,-2.725,-2.7274,-2.728,-2.7285,-2.7355,-2.7369,-2.7381,0,0,0,0,0,0,-2.739,-2.7351,-2.7326,-2.7358,-2.7347,-2.7316,-2.7337,-2.7306,-2.7304,-2.7297,-2.7253,-2.7249,-2.728,-2.7267,-2.7238,-2.7298,-2.7253,-2.7259,-2.7305,-2.7318,-2.7329,-2.7332,-2.7176,0,0,0,0,0,-2.741,-2.7419,-2.7384,-2.7416,-2.7412,-2.7376,-2.7378,-2.7351,-2.7338,-2.7333,-2.7313,-2.7303,-2.7308,-2.7312,-2.7315,-2.7357,-2.7352,-2.7381,-2.7392,-2.7401,-2.7407,-2.7431,-2.7444,-2.7306,-2.7306,-2.7306,0,0,-2.7452,-2.7432,-2.744,-2.7431,-2.7419,-2.743,-2.7372,-2.7386,-2.7394,-2.7335,-2.7357,-2.7343,-2.7329,-2.7363,-2.7377,-2.7353,-2.7444,-2.7408,-2.7415,-2.7416,-2.7438,-2.7451,-2.7463,-2.731,-2.7309,-2.7308,0,0,-2.7534,-2.7519,-2.7545,-2.7535,-2.7517,-2.7493,-2.75,-2.7474,-2.7462,-2.7483,-2.744,-2.745,-2.7459,-2.7452,-2.7449,-2.7532,-2.7499,-2.7534,-2.759,-2.7614,-2.7625,-2.7635,-2.7666,-2.7678,-2.754,-2.754,-2.754,0,-2.7589,-2.7602,-2.7562,-2.7579,-2.7577,-2.7524,-2.7551,-2.7544,-2.7529,-2.753,-2.7503,-2.7515,-2.7502,-2.7535,-2.7556,-2.7554,-2.7562,-2.7536,-2.7627,-2.7636,-2.7644,-2.7674,-2.7685,-2.7544,-2.7544,-2.7543,-2.7543,0,-2.7671,-2.7682,-2.7705,-2.7692,-2.7693,-2.7714,-2.7679,-2.7685,-2.7659,-2.7639,-2.7663,-2.7645,-2.7645,-2.765,-2.7625,-2.7681,-2.7667,-2.7634,-2.7588,-2.7662,-2.769,-2.77,-2.7551,-2.7549,-2.7548,-2.7547,0,0,-2.7799,-2.7764,-2.7774,-2.7768,-2.7747,-2.7755,-2.7775,-2.7774,-2.7781,-2.7773,-2.7791,-2.7801,-2.7772,-2.7769,-2.7742,-2.7763,-2.7833,-2.7728,-2.7727,-2.775,-2.7896,-2.7922,-2.7935,-2.7811,-2.7813,-2.7814,-2.7898,0,-2.7877,-2.7909,-2.7874,-2.7914,-2.7925,-2.7876,-2.7894,-2.7884,-2.7866,-2.7874,-2.7855,-2.7863,-2.7822,-2.7821,-2.7839,-2.782,-2.7862,-2.7813,-2.7829,-2.783,-2.7835,-2.7949,-2.7976,-2.8056,-2.7908,-2.791,-2.7911,0,-2.7972,-2.7969,-2.801,-2.7988,-2.7991,-2.8008,-2.8005,-2.8012,-2.8001,-2.7987,-2.7985,-2.7953,-2.7974,-2.7929,-2.7958,-2.7926,-2.7931,-2.7923,-2.7925,-2.7926,-2.7876,-2.7955,-2.808,-2.8093,-2.7927,-2.7926,-2.7925,0,-2.8063,-2.8069,-2.8095,-2.8091,-2.8066,-2.8079,-2.807,-2.8056,-2.8058,-2.8057,-2.8058,-2.806,-2.8061,-2.8063,-2.8034,-2.8003,-2.8068,-2.8019,-2.8059,-2.806,-2.8075,-2.8075,-2.8205,-2.8076,-2.8076,-2.8076,-2.8076,0,-2.8154,-2.8182,-2.8136,-2.8152,-2.8182,-2.8143,-2.8175,-2.816,-2.8149,-2.8163,-2.8121,-2.8135,-2.8094,-2.8105,-2.8082,-2.8112,-2.8112,-2.8103,-2.8097,-2.8107,-2.8109,-2.811,-2.8105,-2.8079,-2.8078,-2.8078,-2.8077,0,-2.8261,-2.8231,-2.8256,-2.823,-2.8225,-2.8249,-2.8227,-2.8242,-2.8222,-2.8241,-2.8243,-2.8212,-2.8223,-2.8193,-2.8199,-2.8184,-2.8228,-2.8212,-2.8231,-2.8227,-2.8269,-2.8266,-2.8405,-2.8423,-2.8282,-2.8283,-2.8284,0,-2.8322,-2.8342,-2.8319,-2.8325,-2.8317,-2.8327,-2.833,-2.8293,-2.8298,-2.8288,-2.8305,-2.8312,-2.8316,-2.8336,-2.8315,-2.832,-2.8305,-2.8354,-2.8306,-2.8317,-2.8309,-2.8308,-2.8311,-2.8364,-2.8366,-2.8367,-2.8368,0,-2.8434,-2.8418,-2.8423,-2.8423,-2.8427,-2.8426,-2.8422,-2.843,-2.8391,-2.8399,-2.8409,-2.8412,-2.8419,-2.8428,-2.8429,-2.842,-2.839,-2.8384,-2.8393,-2.8405,-2.8416,-2.8413,-2.826,-2.8381,-2.8379,-2.8378,-2.8378,-2.8377,-2.852,-2.8537,-2.8524,-2.8531,-2.8524,-2.8522,-2.8535,-2.8517,-2.8525,-2.8527,-2.8505,-2.8521,-2.8512,-2.851,-2.8506,-2.8519,-2.8497,-2.8511,-2.8514,-2.8519,-2.8527,-2.8413,-2.8519,-2.8518,-2.8518,-2.8518,-2.8518,0,-2.8631,-2.8621,-2.8628,-2.8624,-2.863,-2.8599,-2.8594,-2.8602,-2.8616,-2.8609,-2.8614,-2.8628,-2.8637,-2.8617,-2.8624,-2.8638,-2.8625,-2.8642,-2.8641,-2.864,-2.8545,-2.8536,-2.8653,-2.8653,-2.8653,-2.8653,-2.8653,-2.8653,-2.869,-2.8717,-2.8701,-2.8725,-2.8714,-2.8729,-2.8729,-2.8727,-2.8722,-2.8739,-2.8746,-2.8733,-2.8722,-2.8728,-2.8736,-2.873,-2.8736,-2.8758,-2.8748,-2.866,-2.8646,-2.8634,-2.8626,-2.8759,-2.8759,-2.8842,-2.8843,-2.8844]},{"header":{"parameterUnit":"m.s-1","parameterCategory":1,"la1":30.2991,"la2":30.254,"lo1":-89.0895,"lo2":-89.0444,"dy":0.0017,"dx":0.0017,"nx":28,"ny":28,"refTime":"2024-08-25T03:00:00:Z","depth":0,"parameterNumber":3,"parameterNumberName":"V-component_of_WINDS"},"data":[0,0,0,0,0,0,0,0,0,0,0,0,0,0,0,0,0,0,0,0,0,0,0,0,0,0,0,0,0,0,0,0,0,0,0,0,0,0,0,0,0,0,0,0,0,0,0,0,0,0,0,0,0,0,0,0,0,0,0.2636,0.2637,0,0.2662,0.2662,0.2662,0.2689,0.2689,0.269,0.269,0.2714,0.2714,0.2714,0,0,0,0,0,0,0,0,0,0,0,0,0,0.2609,0.2609,0.2636,0.2637,0.2637,0.2661,0.2662,0.2662,0.2689,0.2689,0.269,0.269,0.2714,0.2714,0.2715,0,0,0,0,0,0,0,0,0,0,0,0,0,0.2626,0.261,0.2636,0.2653,0.2655,0.2661,0.2662,0.2662,0.2689,0.2689,0.269,0.269,0.2714,0.2714,0.2715,0.2706,0,0,0.2716,0.2716,0,0,0,0,0,0,0,0,0.2625,0.2627,0.265,0.2652,0.2654,0.2673,0.2661,0.2677,0.2688,0.2676,0.269,0.2691,0.27,0.2701,0.2705,0.2707,0.2708,0.2716,0.2716,0.2716,0.2716,0,0,0,0,0,0,0,0.2624,0.2626,0.2646,0.2651,0.2653,0.2659,0.2662,0.2664,0.2684,0.2677,0.2679,0.2682,0.2701,0.2704,0.2705,0.2708,0.2716,0.2716,0.2717,0.2717,0.2703,0.2703,0,0,0,0,0,0,0.262,0.2625,0.2645,0.2647,0.2641,0.2659,0.2662,0.2666,0.2684,0.2688,0.2681,0.2683,0.2703,0.2705,0.2706,0.2696,0.2716,0.2717,0.2717,0.2704,0.2703,0.2703,0,0,0,0,0,0,0.262,0.2622,0.2644,0.2637,0.264,0.2659,0.2663,0.2666,0.267,0.2687,0.2691,0.2681,0.2704,0.2706,0.2706,0.2697,0.2717,0.2717,0.2705,0.2704,0.2703,0.2676,0,0,0,0,0,0,0.2619,0.2622,0.2619,0.2636,0.264,0.2644,0.2662,0.2666,0.2671,0.2673,0.2688,0.2691,0.2704,0.2705,0.2706,0.2698,0.2718,0.2705,0.2704,0.2703,0.2678,0.2674,0.2671,0,0,0,0,0,0.2618,0.261,0.2619,0.2621,0.2637,0.2643,0.2645,0.2661,0.267,0.2667,0.2678,0.2691,0.2698,0.2705,0.2706,0.2698,0.2706,0.2705,0.2703,0.2679,0.2675,0.2671,0,0,0,0,0,0,0.2591,0.2613,0.2622,0.262,0.263,0.2648,0.2644,0.2656,0.2663,0.2664,0.2683,0.2686,0.2684,0.2691,0.2698,0.269,0.2704,0.2703,0.2685,0.2681,0.2678,0.2675,0.2718,0,0,0,0,0,0.2585,0.2588,0.2607,0.2603,0.2608,0.2625,0.2628,0.264,0.265,0.2654,0.2665,0.2674,0.2678,0.268,0.2686,0.268,0.2682,0.2675,0.2672,0.2669,0.2667,0.2663,0.266,0.2698,0.2698,0.2698,0,0,0.2572,0.2584,0.2585,0.2598,0.2607,0.2609,0.2628,0.263,0.2632,0.2654,0.2654,0.2663,0.2674,0.267,0.2669,0.2677,0.2658,0.2667,0.2665,0.2665,0.2662,0.2658,0.2655,0.2697,0.2697,0.2697,0,0,0.2549,0.256,0.2557,0.2565,0.2578,0.259,0.2589,0.2606,0.2612,0.2613,0.2629,0.2631,0.2639,0.2646,0.265,0.263,0.2641,0.2631,0.2614,0.261,0.2607,0.2604,0.2595,0.2592,0.263,0.263,0.263,0,0.2531,0.2536,0.2554,0.2555,0.2559,0.258,0.2577,0.2584,0.2598,0.26,0.2609,0.2618,0.2627,0.2625,0.262,0.2623,0.2622,0.2629,0.2606,0.2604,0.2601,0.2593,0.259,0.2628,0.2629,0.2629,0.2629,0,0.2512,0.2515,0.2512,0.2525,0.2529,0.2528,0.2545,0.2547,0.2558,0.2569,0.2569,0.2581,0.2588,0.2589,0.2599,0.2588,0.2591,0.2603,0.2617,0.2596,0.2588,0.2586,0.2626,0.2627,0.2627,0.2628,0,0,0.2472,0.2496,0.2494,0.2499,0.2515,0.2517,0.2517,0.2525,0.2525,0.2534,0.2533,0.2539,0.2549,0.2554,0.2566,0.2563,0.2544,0.2575,0.2575,0.2567,0.253,0.252,0.2516,0.2553,0.2552,0.2552,0.2529,0,0.2451,0.2451,0.2468,0.2463,0.2465,0.2486,0.2485,0.2494,0.2504,0.2507,0.2518,0.2521,0.2536,0.2538,0.2536,0.2547,0.2537,0.2549,0.255,0.255,0.2545,0.2513,0.2502,0.2479,0.2526,0.2526,0.2525,0,0.2426,0.2433,0.2429,0.2444,0.2446,0.2445,0.2453,0.2456,0.2466,0.2474,0.2479,0.2493,0.2493,0.2507,0.2506,0.2514,0.2516,0.2521,0.2521,0.252,0.2535,0.2509,0.2473,0.2468,0.2521,0.2521,0.2522,0,0.2394,0.2404,0.2402,0.2407,0.2425,0.2424,0.2431,0.2442,0.2446,0.2453,0.2454,0.2461,0.2464,0.2469,0.2483,0.2493,0.248,0.2496,0.2485,0.2484,0.2479,0.2479,0.2441,0.2484,0.2484,0.2484,0.2484,0,0.2368,0.2364,0.2388,0.2387,0.2383,0.2402,0.2397,0.2406,0.2416,0.2416,0.2435,0.2435,0.2455,0.2457,0.2468,0.2465,0.2467,0.2471,0.2474,0.2468,0.2467,0.2468,0.2469,0.2483,0.2483,0.2484,0.2484,0,0.2331,0.2348,0.2347,0.2364,0.2369,0.2365,0.2379,0.2378,0.239,0.239,0.2391,0.2409,0.2412,0.2427,0.2434,0.2442,0.2433,0.244,0.2429,0.2431,0.2418,0.2418,0.2377,0.2371,0.242,0.242,0.2419,0,0.2312,0.2309,0.2327,0.2328,0.2335,0.2338,0.2341,0.236,0.2362,0.2374,0.2371,0.2376,0.2381,0.2384,0.2397,0.2402,0.2408,0.2393,0.2409,0.2403,0.2405,0.2404,0.2403,0.2389,0.2389,0.2388,0.2388,0,0.2275,0.2284,0.2288,0.2295,0.2299,0.2305,0.2313,0.2313,0.2333,0.2335,0.2339,0.2342,0.2349,0.2353,0.236,0.2367,0.238,0.2383,0.238,0.2373,0.2366,0.2368,0.2418,0.2383,0.2384,0.2384,0.2384,0.2385,0.2246,0.2244,0.2255,0.2259,0.2267,0.2273,0.2273,0.2285,0.2288,0.2295,0.2306,0.2308,0.2318,0.2329,0.2335,0.2336,0.2343,0.234,0.2339,0.2337,0.2333,0.2368,0.2337,0.2338,0.2338,0.2338,0.2338,0,0.2208,0.2217,0.222,0.223,0.2233,0.2247,0.2256,0.2257,0.2258,0.2267,0.2271,0.2274,0.2278,0.2291,0.2296,0.2294,0.23,0.2294,0.2294,0.2295,0.2327,0.2328,0.2289,0.2289,0.2289,0.2289,0.2289,0.2289,0.2189,0.2186,0.2195,0.2196,0.2205,0.2206,0.221,0.2215,0.2222,0.2225,0.2229,0.2238,0.2248,0.2254,0.2257,0.2261,0.2261,0.2253,0.2258,0.2288,0.2293,0.2297,0.2298,0.2254,0.2253,0.2226,0.2226,0.2225]}]]